Location: *
(23.5860°S, 65.4036°W)
Time: 12:27:25
(UTC+00:00)

Gbstr 26 Del rocket - Visible Passes

Search period start: 18 November 2019 00:00
Search period end: 28 November 2019 00:00
Orbit: 493 x 1264 km, 51.8° (Epoch: 17 November)

Date Brightness Start Highest point End Pass type
(mag) Time Alt. Az. Time Alt. Az. Time Alt. Az.
18 Nov 6.1 01:42:22 10° SSW 01:47:38 19° SSE 01:48:49 18° SE visible
18 Nov 6.1 03:28:37 10° SW 03:31:20 23° SW 03:31:20 23° SW visible
19 Nov 5.9 01:37:18 10° SSW 01:43:14 23° SSE 01:44:05 22° SE visible
19 Nov 6.1 03:23:54 10° SW 03:26:36 23° SW 03:26:36 23° SW visible
20 Nov 5.6 01:32:18 10° SSW 01:38:48 27° SE 01:39:24 27° SE visible
20 Nov 6.1 03:19:14 10° SW 03:21:56 23° SW 03:21:56 23° SW visible
20 Nov 6.8 23:43:52 10° SSE 23:44:32 10° SSE 23:45:12 10° SSE visible
21 Nov 5.3 01:27:20 10° SSW 01:34:19 33° SE 01:34:46 32° SE visible
21 Nov 6.1 03:14:39 10° SW 03:17:18 22° WSW 03:17:18 22° WSW visible
21 Nov 6.5 23:37:31 10° S 23:40:17 12° SSE 23:42:59 10° SE visible
22 Nov 5.0 01:22:25 10° SSW 01:29:48 40° SE 01:30:12 39° SE visible
22 Nov 6.2 03:10:09 10° SW 03:12:44 21° WSW 03:12:44 21° WSW visible
22 Nov 6.4 23:32:06 10° S 23:36:00 14° SSE 23:39:48 10° SE visible
23 Nov 4.7 01:17:33 10° SSW 01:25:15 49° SE 01:25:41 48° SE visible
23 Nov 6.2 03:05:46 10° WSW 03:08:13 19° WSW 03:08:13 19° WSW visible
23 Nov 6.3 23:26:53 10° S 23:31:41 16° SSE 23:36:18 10° ESE visible
24 Nov 4.4 01:12:43 10° SSW 01:20:39 60° SE 01:21:13 58° ESE visible
24 Nov 6.3 03:01:31 10° WSW 03:03:46 17° W 03:03:46 17° W visible
24 Nov 6.2 23:21:46 10° SSW 23:27:19 19° SSE 23:32:35 10° ESE visible
25 Nov 4.2 01:07:56 10° SW 01:16:00 74° SE 01:16:50 67° E visible
25 Nov 6.4 02:57:29 10° WSW 02:59:22 15° W 02:59:22 15° W visible
25 Nov 6.0 23:16:43 10° SSW 23:22:55 23° SE 23:28:45 10° E visible
26 Nov 4.2 01:03:12 10° SW 01:11:18 90° SE 01:12:30 67° NE visible
26 Nov 6.6 02:53:51 10° W 02:55:03 12° W 02:55:03 12° W visible
26 Nov 5.7 23:11:43 10° SSW 23:18:28 27° SE 23:24:46 10° E visible
27 Nov 4.3 00:58:32 10° SW 01:06:35 74° NW 01:08:14 56° NNE visible
27 Nov 5.5 23:06:47 10° SSW 23:13:58 33° SE 23:20:39 10° E visible
